{"data":{"norad_id":67387,"epoch":"2026-05-25T04:29:35.225664Z","epoch_age_seconds":62335,"freshness":"FRESH","line1":"1 67387U 26004AA  26145.18721326  .00002727  00000+0  28947-3 0  9991","line2":"2 67387  97.8039 144.4915 0003789 140.8523 219.2969 14.89862480 19881","mean_motion":14.8986248,"eccentricity":0.0003789,"inclination_deg":97.8039,"raan_deg":144.4915,"arg_perigee_deg":140.8523,"mean_anomaly_deg":219.2969,"bstar":0.00028947,"rev_number":1988,"period_min":96.653215939769,"perigee_km":595.72154085652,"apogee_km":601.00833402471,"semimajor_km":6976.5019374406,"source":"CELESTRAK","updated_at":"2026-05-25T13:38:13.579385Z"}}